Change the Weather History Date:

Friday, April 4, 2014

  Actual Average Record
Temperature  
Mean Temperature 47 °F 42 °F  
Max Temperature 52 °F 52 °F 75 °F (1981)
Min Temperature 41 °F 32 °F 14 °F (2013)
Degree Days  
Heating Degree Days 18 23  
Month to date heating degree days 61 94  
Since 1 July heating degree days 6159 6052  
Cooling Degree Days 0 0  
Month to date cooling degree days 0 0  
Year to date cooling degree days 0 0  
Moisture  
Dew Point 43 °F    
Average Humidity 82    
Maximum Humidity 93    
Minimum Humidity 70    
Precipitation  
Precipitation 0.27 in 0.12 in 1.59 in (1984)
Month to date precipitation 0.78 0.48  
Sea Level Pressure  
Sea Level Pressure 29.70 in    
Wind  
Wind Speed 14 mph (SE)    
Max Wind Speed 30 mph    
Max Gust Speed 39 mph    
Visibility 5 miles    
Events Rain    
T = Trace of Precipitation, MM = Missing Value Source: NWS Daily Summary

Daily Weather History Graph

Daily Weather History Graph

Search for Another Location

Airport or City:

Trip Planner

Search our weather history database for the weather conditions in past years. The results will help you decide how hot, cold, wet, or windy it might be!

Date:

Astronomy

Apr. 04, 2014 Rise Set
Actual Time 6:53 AM EDT 7:43 PM EDT
Civil Twilight 6:25 AM EDT 8:11 PM EDT
Nautical Twilight 5:52 AM EDT 8:45 PM EDT
Astronomical Twilight 5:18 AM EDT 9:19 PM EDT
Moon 10:07 AM EDT (4/4) 12:02 AM EDT (4/4)
Length of Visible Light 13h 45m
Length of Day
12h 49m
Waxing Crescent, 25% of the Moon is Illuminated
Apr 4
Waxing Crescent
Apr 7
First Quarter
Apr 15
Full
Apr 22
Last Quarter
Apr 29
New

Hourly Weather History & Observations

Time (EDT) Temp. Windchill Dew Point Humidity Pressure Visibility Wind Dir Wind Speed Gust Speed Precip Events Conditions
12:11 AM 43.0 °F 37.2 °F 42.1 °F 97% 29.85 in 3.0 mi ESE 10.4 mph - 0.00 in   Overcast
12:56 AM 44.1 °F 38.6 °F 42.1 °F 93% 29.83 in 2.5 mi East 10.4 mph - 0.03 in Rain Light Rain
1:09 AM 44.1 °F 39.5 °F 42.1 °F 93% 29.82 in 3.0 mi ESE 8.1 mph - 0.00 in   Overcast
1:56 AM 45.0 °F 38.5 °F 43.0 °F 93% 29.81 in 7.0 mi ESE 13.8 mph 21.9 mph 0.00 in   Overcast
2:06 AM 45.0 °F 38.9 °F 43.0 °F 93% 29.80 in 7.0 mi ESE 12.7 mph - N/A   Overcast
2:53 AM 44.6 °F 38.8 °F 42.8 °F 93% 29.80 in 2.0 mi ESE 11.5 mph - 0.00 in Rain Light Rain
2:56 AM 45.0 °F 39.3 °F 43.0 °F 93% 29.81 in 2.0 mi ESE 11.5 mph - 0.01 in Rain Light Rain
3:12 AM 45.0 °F 39.3 °F 43.0 °F 93% 29.81 in 3.0 mi ESE 11.5 mph - 0.00 in   Overcast
3:21 AM 45.0 °F 40.1 °F 43.0 °F 93% 29.81 in 2.0 mi ESE 9.2 mph - 0.01 in   Overcast
3:45 AM 45.0 °F 40.1 °F 43.0 °F 93% 29.80 in 1.8 mi ESE 9.2 mph - 0.01 in   Overcast
3:52 AM 44.6 °F 39.7 °F 42.8 °F 93% 29.79 in 2.0 mi SE 9.2 mph - 0.01 in   Overcast
3:56 AM 44.1 °F 38.6 °F 43.0 °F 96% 29.79 in 2.0 mi ESE 10.4 mph 16.1 mph 0.01 in   Overcast
4:56 AM 45.0 °F 39.3 °F 43.0 °F 93% 29.80 in 2.5 mi SE 11.5 mph - 0.01 in Rain Light Rain
5:08 AM 45.0 °F 39.3 °F 43.0 °F 93% 29.79 in 3.0 mi SE 11.5 mph - 0.01 in   Overcast
5:56 AM 45.0 °F 38.9 °F 43.0 °F 93% 29.81 in 4.0 mi ESE 12.7 mph - 0.01 in   Overcast
6:20 AM 45.0 °F 39.3 °F 43.0 °F 93% 29.78 in 6.0 mi ESE 11.5 mph - N/A   Overcast
6:49 AM 45.0 °F 38.5 °F 43.0 °F 93% 29.79 in 7.0 mi SE 13.8 mph - N/A   Overcast
6:56 AM 45.0 °F 39.3 °F 43.0 °F 93% 29.81 in 6.0 mi SE 11.5 mph - N/A   Overcast
7:56 AM 46.0 °F 39.3 °F 43.0 °F 89% 29.79 in 3.0 mi SE 16.1 mph 24.2 mph N/A   Overcast
8:12 AM 46.0 °F 39.9 °F 44.1 °F 93% 29.76 in 2.5 mi SE 13.8 mph - N/A   Overcast
8:51 AM 46.4 °F 39.2 °F 44.6 °F 93% 29.77 in 1.5 mi SE 18.4 mph - N/A   Overcast
8:56 AM 46.0 °F 39.3 °F 44.1 °F 93% 29.78 in 1.5 mi SE 16.1 mph 23.0 mph N/A   Overcast
9:28 AM 46.0 °F 39.6 °F 44.1 °F 93% 29.76 in 2.0 mi SE 15.0 mph 21.9 mph N/A   Overcast
9:56 AM 46.0 °F 39.3 °F 44.1 °F 93% 29.77 in 2.0 mi SE 16.1 mph 26.5 mph N/A   Overcast
10:14 AM 46.0 °F 39.3 °F 43.0 °F 89% 29.74 in 1.8 mi ESE 16.1 mph 25.3 mph 0.02 in Rain Light Rain
10:31 AM 46.0 °F 40.2 °F 44.1 °F 93% 29.74 in 2.0 mi SE 12.7 mph - 0.03 in Rain Light Rain
10:45 AM 46.0 °F 39.3 °F 44.1 °F 93% 29.72 in 1.8 mi ESE 16.1 mph 21.9 mph 0.04 in   Overcast
10:56 AM 45.0 °F 37.6 °F 43.0 °F 93% 29.74 in 2.0 mi SE 17.3 mph 21.9 mph 0.04 in   Overcast
11:49 AM 45.0 °F 37.1 °F 42.1 °F 90% 29.68 in 3.0 mi SE 19.6 mph 27.6 mph N/A   Overcast
11:56 AM 45.0 °F 37.9 °F 42.1 °F 90% 29.70 in 3.0 mi SE 16.1 mph 26.5 mph N/A   Overcast
12:56 PM 45.0 °F 37.6 °F 41.0 °F 86% 29.66 in 6.0 mi SE 17.3 mph 31.1 mph N/A   Overcast
1:54 PM 44.6 °F 37.2 °F 42.8 °F 93% 29.63 in 2.0 mi SE 17.3 mph 29.9 mph 0.03 in Rain Light Rain
1:56 PM 45.0 °F 37.6 °F 42.1 °F 90% 29.65 in 2.0 mi SE 17.3 mph 25.3 mph 0.03 in Rain Light Rain
2:11 PM 44.1 °F 36.5 °F 42.1 °F 93% 29.62 in 1.8 mi SE 17.3 mph 24.2 mph 0.04 in Rain Light Rain
2:27 PM 45.0 °F 37.1 °F 42.1 °F 90% 29.59 in 2.0 mi SE 19.6 mph 32.2 mph 0.07 in Rain Light Rain
2:40 PM 45.0 °F 37.1 °F 42.1 °F 90% 29.59 in 5.0 mi SE 19.6 mph 28.8 mph 0.08 in Rain Light Rain
2:56 PM 45.0 °F 37.1 °F 42.1 °F 90% 29.60 in 4.0 mi SE 19.6 mph 27.6 mph 0.08 in   Overcast
3:13 PM 45.0 °F 38.2 °F 42.1 °F 90% 29.58 in 1.8 mi SE 15.0 mph 27.6 mph 0.03 in Rain Light Rain
3:23 PM 45.0 °F 36.9 °F 42.1 °F 90% 29.58 in 2.5 mi SE 20.7 mph 31.1 mph 0.04 in Rain Light Rain
3:30 PM 45.0 °F 38.2 °F 43.0 °F 93% 29.58 in 3.0 mi SSE 15.0 mph 31.1 mph 0.04 in Rain Light Rain
4:56 PM 46.9 °F - 44.1 °F 90% 29.59 in 10.0 mi SE 15.0 mph - 0.00 in   Overcast
5:48 PM 48.0 °F - 45.0 °F 89% 29.57 in 10.0 mi SE 10.4 mph 17.3 mph N/A   Overcast
5:56 PM 48.0 °F - 45.0 °F 89% 29.57 in 9.0 mi SE 9.2 mph - N/A   Overcast
6:37 PM 48.0 °F - 46.0 °F 93% 29.56 in 7.0 mi SE 11.5 mph 23.0 mph N/A   Overcast
6:45 PM 48.0 °F - 46.0 °F 93% 29.56 in 7.0 mi SE 12.7 mph 19.6 mph N/A   Overcast
6:52 PM 48.2 °F - 44.6 °F 87% 29.55 in 7.0 mi SE 11.5 mph 20.7 mph N/A   Overcast
6:56 PM 48.0 °F - 46.0 °F 93% 29.57 in 7.0 mi SE 13.8 mph 20.7 mph N/A   Overcast
7:19 PM 48.0 °F - 46.0 °F 93% 29.56 in 6.0 mi SSE 10.4 mph 21.9 mph N/A   Overcast
7:53 PM 48.2 °F - 46.4 °F 93% 29.62 in 6.0 mi West 13.8 mph 25.3 mph 0.00 in Rain Light Rain
7:56 PM 48.9 °F - 46.9 °F 93% 29.62 in 5.0 mi Variable 6.9 mph 24.2 mph 0.01 in Rain Light Rain
8:08 PM 48.9 °F - 46.9 °F 93% 29.61 in 5.0 mi Calm Calm - 0.01 in Rain Light Rain
8:56 PM 50.0 °F - 48.0 °F 93% 29.64 in 10.0 mi SW 5.8 mph - 0.01 in   Overcast
9:07 PM 51.1 °F - 48.0 °F 89% 29.63 in 10.0 mi SW 4.6 mph - N/A   Mostly Cloudy
9:22 PM 51.1 °F - 48.9 °F 92% 29.63 in 10.0 mi SW 4.6 mph - N/A   Mostly Cloudy
9:56 PM 51.1 °F - 46.0 °F 83% 29.67 in 10.0 mi West 16.1 mph 29.9 mph N/A   Overcast
10:36 PM 46.9 °F - 39.0 °F 74% 29.69 in - North - - N/A   Unknown
10:56 PM 46.0 °F 38.8 °F 39.0 °F 76% 29.71 in 10.0 mi West 18.4 mph 25.3 mph N/A   Unknown
11:56 PM 43.0 °F 35.1 °F 34.0 °F 71% 29.74 in 10.0 mi WSW 17.3 mph 25.3 mph N/A   Overcast